Wind_Speed
42 42 42 42 43 43 39 32 29 30 31 32 33 35 36 36 35 35 32 30 28 26 26 25 24 23 22 21 20 19 18 17 16 15 14 13 12 11 10 10 9 9 9 9 9 8 8 7 7
45 45 45 45 46 44 38 32 30 31 33 35 36 37 37 37 36 34 32 31 29 27 27 26 25 24 23 23 22 21 20 18 17 16 15 14 13 12 11 11 10 10 9 9 9 9 8 8 8
48 48 48 49 48 43 36 31 32 34 37 38 38 39 38 37 36 35 33 31 30 29 28 28 27 26 25 24 23 22 21 20 19 17 16 15 14 13 13 12 11 11 10 10 10 9 9 9 9
51 52 52 52 49 41 37 34 36 38 39 40 40 40 39 37 37 36 35 32 31 30 29 29 29 28 27 26 25 23 22 21 20 18 17 16 15 14 14 13 12 12 11 11 10 10 9 9 9
55 56 56 55 49 42 39 37 39 41 41 41 42 42 40 38 38 37 36 35 33 31 31 30 30 30 29 27 26 25 23 22 21 20 19 18 16 15 15 14 13 13 12 12 11 11 10 10 9
58 59 59 57 50 44 41 40 42 43 42 42 43 43 42 41 39 38 37 36 35 33 32 32 32 31 30 29 27 26 25 23 22 21 20 19 18 17 16 16 15 14 13 13 12 12 11 10 10
60 61 61 57 53 48 43 43 45 45 45 44 44 44 44 43 41 40 39 38 37 35 34 33 33 32 31 30 29 28 26 24 23 22 21 20 19 18 17 17 16 15 14 14 13 12 11 11 11
61 63 63 60 55 50 46 46 47 48 47 45 46 46 44 43 43 42 41 40 38 37 36 34 34 33 33 32 31 29 28 26 24 23 22 21 20 19 18 18 17 16 15 14 14 13 12 11 12
62 65 65 60 56 52 49 49 49 50 49 48 48 47 45 45 45 44 43 41 40 38 37 36 35 35 35 34 32 31 29 27 26 24 24 23 22 20 19 19 18 17 16 15 15 14 13 12 13
65 67 63 58 56 54 52 52 51 52 52 51 50 48 47 46 45 44 43 42 40 39 38 37 37 36 36 35 34 32 31 29 28 26 25 24 23 22 21 20 19 18 17 16 16 15 14 13 13
65 66 61 59 58 57 56 55 55 55 55 53 51 50 48 47 45 44 43 42 41 41 40 39 38 38 37 37 35 34 32 31 29 27 26 25 24 23 22 21 20 19 18 17 17 16 15 15 15
64 63 62 60 59 59 58 57 57 58 55 54 54 52 51 49 46 44 43 43 41 41 41 40 39 39 38 38 37 35 33 31 30 29 28 27 25 24 23 22 21 21 20 19 18 17 17 16 16
62 61 61 61 60 60 60 59 59 59 56 56 56 54 53 50 48 46 45 44 43 42 42 41 40 39 39 39 38 37 35 33 31 30 29 28 27 26 24 23 23 22 21 20 19 19 18 17 17
57 59 61 62 61 61 61 61 62 60 57 58 57 56 54 52 50 48 46 45 44 43 42 42 40 40 40 39 39 37 36 34 33 31 30 29 28 27 26 25 24 23 22 21 21 20 19 19 18
54 56 60 61 61 61 62 64 63 59 58 59 58 57 55 53 52 50 47 45 44 43 42 42 41 41 41 40 39 38 37 35 34 33 32 31 30 29 28 26 25 24 24 23 22 21 20 20 20
51 55 58 59 60 60 62 65 62 60 60 60 59 58 57 55 53 51 49 46 45 44 43 42 42 42 41 41 40 39 38 36 35 34 33 32 31 30 29 28 27 26 25 24 24 23 22 22 21
51 53 55 56 58 60 61 63 62 62 62 61 60 59 58 57 54 52 50 48 46 45 43 43 42 42 42 42 41 40 39 37 36 35 34 33 33 32 30 29 28 27 26 26 25 24 23 23 23
48 50 52 53 55 58 60 61 61 62 62 63 61 60 60 58 55 52 51 49 47 46 45 44 43 43 43 42 42 41 40 38 37 36 35 34 34 33 32 30 29 29 28 27 26 25 25 24 24
46 49 51 52 52 57 60 61 61 61 63 64 63 62 60 59 56 54 52 50 49 48 46 45 44 43 43 42 42 41 40 39 38 37 36 35 35 34 33 32 31 30 29 28 27 27 26 26 25
46 48 48 50 51 55 59 62 61 60 62 64 63 63 61 59 58 56 54 52 51 49 47 46 44 43 42 41 41 41 41 41 40 39 38 36 35 34 34 33 32 31 30 30 29 28 28 27 27
42 46 46 47 50 52 55 61 63 61 61 63 64 64 63 60 58 57 56 54 52 50 48 46 45 43 43 42 42 42 42 41 40 38 37 36 36 35 34 33 33 32 31 31 30 30 29 28 28
38 42 43 44 47 50 52 57 61 60 61 63 63 64 64 61 59 58 57 55 53 51 48 46 45 44 43 43 43 42 41 39 38 38 38 37 36 36 35 34 33 33 32 32 31 31 30 30 30
36 40 42 43 45 48 50 54 57 59 60 61 62 62 62 62 60 58 57 55 53 52 50 48 46 45 44 44 43 42 41 40 40 40 38 37 37 36 35 35 35 34 33 33 32 32 31 31 31
32 37 42 44 45 49 48 51 55 54 56 57 60 60 61 61 61 59 57 57 55 53 52 50 48 46 45 44 44 43 41 41 40 39 38 38 37 36 36 36 35 35 34 34 33 33 33 32 32
31 33 37 41 45 46 45 49 52 48 50 53 56 58 59 59 60 59 59 58 56 55 53 51 49 47 45 44 44 43 42 42 40 40 39 38 37 36 36 36 36 35 35 34 34 34 33 33 33
30 32 35 37 41 42 43 47 47 44 46 51 54 56 57 58 59 58 58 58 57 55 53 52 50 48 46 45 43 43 43 42 41 41 40 39 38 37 37 37 37 36 36 35 34 34 34 34 34
29 31 33 33 35 39 42 45 45 43 44 46 51 54 56 57 58 58 57 57 57 55 54 52 50 49 47 45 44 43 43 42 42 41 40 40 39 39 39 38 38 37 37 36 36 35 35 35 35
27 29 32 33 32 33 39 43 43 41 41 44 47 51 53 54 56 57 57 57 57 56 54 53 51 50 48 47 45 44 43 43 42 42 41 40 40 40 39 39 39 38 38 37 37 36 36 36 36
25 29 32 33 33 32 35 39 41 40 41 42 44 46 48 51 54 56 56 57 57 56 55 54 52 50 50 48 47 45 45 44 43 42 41 40 40 40 40 40 39 39 39 38 38 37 37 37 37
26 29 32 33 33 33 35 35 37 40 40 40 42 45 46 48 51 54 55 55 56 56 56 55 53 52 50 49 48 47 46 45 45 43 42 41 41 41 40 40 40 39 39 39 38 38 38 38 38
Wind_Direction
253 252 251 249 248 247 245 243 240 236 233 230 228 228 228 228 229 229 227 224 222 220 220 221 222 222 223 224 224 225 226 226 229 234 238 243 246 249 251 253 256 260 270 278 284 289 290 295 298
252 251 250 248 247 246 244 242 240 236 233 230 229 229 228 228 228 228 227 225 222 221 221 222 223 223 224 224 224 225 226 226 229 234 238 240 242 246 248 249 252 259 266 275 280 283 284 288 292
251 250 248 247 247 246 244 240 237 233 232 230 229 229 228 228 228 228 226 225 222 221 222 222 223 223 224 224 225 225 225 226 229 233 236 238 240 243 244 246 251 257 264 271 275 277 279 283 290
250 249 247 247 246 245 242 236 235 233 232 231 231 230 228 227 227 227 226 225 224 223 223 223 223 223 223 224 225 226 226 226 229 232 234 236 239 240 242 245 251 256 262 267 272 273 276 282 288
249 248 247 246 245 242 239 235 235 234 233 231 231 230 228 226 226 226 226 225 224 223 224 224 223 224 223 224 225 226 227 227 230 231 232 236 238 239 242 246 250 255 259 264 268 269 274 279 284
248 247 247 246 244 240 237 234 234 234 233 232 232 231 228 226 225 225 226 226 224 223 224 225 224 224 224 224 225 226 227 229 230 230 231 234 237 239 242 245 249 252 256 261 264 268 271 275 280
247 246 246 245 242 238 234 233 233 233 233 232 232 231 229 227 226 225 225 225 225 224 224 225 225 225 224 225 225 226 227 229 230 230 231 234 236 238 241 245 247 250 254 258 262 265 267 273 279
246 246 244 242 241 237 233 232 232 232 232 231 231 230 228 227 226 224 224 225 225 225 224 225 225 225 225 225 225 226 227 228 229 229 230 233 236 237 240 243 245 249 253 255 258 262 265 272 279
245 244 243 241 241 237 233 232 230 231 231 230 230 230 228 226 225 224 223 225 226 226 225 225 226 226 225 225 226 226 227 228 229 229 231 233 236 238 240 241 243 247 251 252 256 259 265 272 279
244 244 243 241 240 237 232 230 229 229 229 229 229 229 228 227 225 224 224 224 226 227 227 227 227 227 226 225 225 225 226 228 229 230 231 233 236 238 240 240 242 246 249 251 254 258 264 271 278
244 244 242 239 237 236 232 229 228 228 228 228 229 228 228 227 225 224 223 223 224 225 226 226 227 227 227 225 225 225 227 228 229 230 231 233 236 238 241 241 242 245 247 250 253 258 264 270 276
242 241 239 237 234 234 231 228 227 227 227 227 227 227 227 226 225 224 223 222 223 224 225 226 227 227 227 225 224 225 226 228 229 230 231 233 236 238 240 241 243 244 247 250 253 258 264 269 275
240 238 237 235 233 232 230 227 226 225 224 225 226 226 226 226 225 223 222 221 221 222 223 225 226 226 226 225 224 225 226 228 228 230 231 233 236 237 239 241 243 244 246 249 252 257 263 267 273
239 237 235 233 231 230 230 227 225 223 223 224 225 225 226 226 225 223 222 222 222 222 223 224 226 226 225 224 224 225 227 227 228 230 232 234 236 238 240 241 243 245 247 249 252 257 262 267 273
236 235 233 231 230 229 230 227 224 221 222 223 224 224 224 225 225 223 222 222 222 222 223 224 225 225 224 223 224 225 226 227 229 230 232 234 237 238 240 241 243 245 247 250 252 257 262 267 273
234 233 232 229 229 229 229 228 223 222 222 222 222 223 223 224 224 223 223 222 222 222 222 223 223 223 224 224 224 224 225 227 229 230 232 234 237 238 239 240 243 245 246 249 252 257 262 267 272
233 232 231 228 228 228 229 228 222 222 222 221 221 222 222 222 223 223 223 222 222 222 222 222 222 223 223 224 224 224 225 227 229 231 233 236 237 237 238 240 242 244 246 248 252 257 262 266 272
232 231 229 227 226 227 227 227 223 222 222 221 221 222 222 221 222 222 222 222 222 222 222 221 221 222 223 224 224 225 226 228 230 232 234 236 236 237 238 240 242 243 246 249 252 256 261 266 271
232 230 229 226 225 226 226 225 223 221 221 220 220 221 221 221 221 222 221 221 221 221 221 221 221 222 223 224 225 226 227 229 231 232 233 235 236 237 239 241 242 244 247 249 253 256 260 265 270
230 228 227 226 226 227 227 225 223 220 221 220 219 220 220 221 220 220 220 220 220 221 221 222 222 222 223 224 225 226 226 227 229 231 233 234 236 237 239 240 241 244 247 250 253 257 260 265 270
230 228 226 227 225 227 228 227 223 220 220 220 219 218 219 220 220 220 221 220 220 221 222 222 223 223 223 224 225 226 226 227 229 232 234 234 235 236 238 240 241 244 247 250 253 256 260 265 270
229 228 227 226 226 227 227 228 223 221 220 220 218 218 218 219 219 220 221 221 221 221 222 223 223 223 223 224 225 227 228 228 230 232 233 233 235 236 238 239 241 244 247 250 253 257 261 265 270
231 228 227 225 225 227 226 228 222 221 221 220 219 218 219 219 219 220 220 221 221 221 222 222 222 223 223 224 225 227 228 228 229 230 232 233 235 236 238 239 242 245 247 251 255 258 261 266 270
230 228 228 225 225 226 223 228 225 221 220 219 219 219 219 220 220 220 220 220 220 221 221 222 222 223 224 225 225 226 227 229 230 231 233 234 235 237 238 240 242 245 249 252 255 258 262 266 271
227 226 227 226 226 226 222 227 225 220 220 219 219 219 220 220 220 220 221 221 220 221 221 222 223 224 225 226 226 226 227 228 229 231 233 234 235 237 239 241 243 246 250 252 255 259 262 267 272
226 225 225 228 229 227 225 227 222 219 218 218 218 218 218 219 219 219 220 221 221 221 222 223 224 225 225 226 226 227 227 228 229 231 233 234 236 237 239 241 244 247 250 253 256 260 263 267 272
225 223 221 225 229 231 229 225 222 218 217 216 217 217 217 218 219 219 219 220 221 221 222 223 224 225 226 227 227 227 228 228 229 232 233 234 236 238 240 242 244 247 250 254 257 260 264 268 272
227 223 220 222 227 230 226 223 222 219 218 217 216 216 216 217 218 219 219 219 220 221 222 222 223 225 226 227 227 227 228 229 230 232 234 235 237 239 241 243 245 248 251 254 257 261 265 269 273
227 222 222 225 228 228 224 222 220 219 219 218 216 215 214 215 217 218 219 219 220 220 221 222 223 224 225 226 227 227 227 229 230 232 235 236 238 240 241 244 246 249 252 255 258 261 266 269 272
228 223 221 226 228 226 224 219 222 219 216 217 216 215 214 214 215 216 217 218 219 220 221 222 223 224 224 226 227 227 228 229 231 233 235 237 240 241 243 245 248 250 253 256 259 263 266 269 273
Height
5796 5798 5799 5801 5802 5804 5808 5815 5819 5820 5822 5824 5826 5826 5829 5832 5835 5840 5843 5846 5848 5852 5854 5856 5859 5861 5864 5866 5868 5870 5872 5874 5875 5877 5878 5879 5880 5881 5882 5882 5882 5883 5882 5882 5882 5882 5881 5881 5881
5787 5789 5790 5791 5792 5796 5803 5810 5812 5814 5815 5816 5818 5820 5823 5826 5830 5834 5837 5840 5844 5847 5850 5853 5856 5858 5861 5863 5865 5868 5869 5871 5873 5875 5876 5877 5878 5879 5880 5881 5881 5881 5881 5881 5881 5880 5880 5880 5880
5776 5777 5779 5780 5782 5789 5798 5804 5805 5805 5806 5808 5811 5813 5817 5821 5825 5829 5832 5836 5840 5843 5846 5849 5852 5854 5857 5860 5862 5865 5867 5869 5871 5872 5874 5875 5876 5877 5878 5879 5879 5879 5879 5879 5879 5879 5879 5879 5878
5765 5766 5767 5770 5775 5784 5791 5795 5795 5796 5799 5801 5804 5807 5811 5816 5820 5823 5827 5831 5834 5838 5841 5844 5847 5850 5853 5856 5859 5861 5863 5866 5868 5870 5871 5873 5874 5875 5876 5877 5877 5878 5878 5878 5878 5878 5877 5877 5877
5751 5753 5754 5758 5767 5776 5782 5786 5786 5788 5791 5794 5797 5800 5804 5809 5813 5817 5821 5825 5829 5832 5836 5839 5843 5846 5849 5852 5855 5857 5860 5862 5865 5867 5868 5870 5871 5873 5874 5875 5875 5875 5876 5876 5876 5876 5875 5875 5875
5737 5739 5742 5748 5758 5766 5772 5776 5777 5780 5783 5786 5789 5793 5797 5802 5806 5811 5815 5819 5823 5827 5830 5834 5837 5841 5844 5848 5851 5854 5856 5859 5861 5863 5865 5867 5869 5870 5871 5872 5873 5873 5873 5874 5874 5874 5873 5873 5873
5724 5725 5729 5738 5746 5754 5762 5765 5767 5770 5774 5778 5781 5785 5790 5795 5800 5804 5808 5812 5816 5820 5825 5828 5832 5836 5839 5843 5846 5849 5852 5855 5858 5860 5862 5864 5865 5867 5868 5869 5870 5870 5871 5871 5871 5871 5871 5871 5871
5709 5711 5715 5724 5734 5744 5751 5753 5757 5760 5765 5769 5771 5776 5782 5788 5792 5796 5801 5806 5810 5814 5819 5823 5827 5830 5834 5838 5842 5845 5848 5851 5854 5856 5858 5860 5862 5864 5865 5866 5867 5868 5868 5868 5869 5869 5869 5869 5868
5691 5693 5700 5714 5724 5733 5738 5742 5746 5749 5753 5758 5762 5768 5774 5778 5783 5789 5794 5799 5803 5808 5813 5817 5821 5825 5829 5833 5837 5840 5843 5847 5849 5852 5854 5857 5858 5860 5861 5863 5864 5864 5865 5865 5866 5866 5866 5866 5866
5673 5676 5692 5706 5711 5717 5723 5728 5733 5736 5741 5748 5753 5759 5764 5770 5775 5782 5787 5793 5797 5802 5806 5811 5815 5819 5823 5827 5831 5835 5839 5842 5845 5848 5850 5853 5854 5856 5858 5859 5860 5861 5862 5862 5863 5863 5863 5863 5863
5658 5665 5681 5688 5694 5700 5708 5714 5719 5723 5730 5738 5744 5749 5755 5761 5768 5774 5780 5785 5790 5794 5799 5804 5808 5813 5817 5821 5826 5830 5833 5837 5840 5843 5846 5848 5850 5852 5854 5855 5856 5857 5858 5859 5859 5860 5860 5860 5860
5643 5653 5663 5671 5677 5684 5692 5699 5705 5711 5722 5727 5732 5738 5745 5752 5759 5766 5772 5777 5782 5787 5792 5796 5801 5806 5810 5815 5820 5824 5828 5832 5835 5838 5841 5843 5846 5847 5849 5851 5852 5853 5854 5855 5856 5856 5856 5856 5856
5628 5639 5647 5654 5661 5669 5676 5683 5692 5700 5710 5715 5721 5728 5735 5742 5750 5756 5762 5768 5774 5779 5784 5789 5794 5799 5804 5808 5813 5818 5822 5826 5830 5833 5836 5838 5841 5843 5845 5846 5848 5849 5850 5851 5852 5852 5853 5853 5852
5616 5623 5630 5637 5646 5653 5661 5670 5676 5690 5698 5703 5710 5718 5726 5733 5740 5747 5754 5760 5766 5772 5777 5782 5786 5792 5797 5802 5807 5812 5816 5820 5824 5827 5830 5833 5835 5838 5840 5842 5843 5845 5846 5847 5848 5848 5849 5849 5848
5601 5606 5613 5622 5632 5640 5646 5652 5665 5681 5685 5691 5698 5707 5715 5723 5730 5738 5745 5752 5758 5764 5769 5774 5779 5784 5789 5795 5800 5805 5810 5814 5818 5822 5824 5827 5830 5832 5835 5837 5839 5840 5841 5842 5843 5844 5844 5844 5844
5586 5591 5598 5611 5618 5626 5631 5640 5659 5667 5671 5679 5687 5696 5704 5713 5720 5729 5736 5743 5749 5755 5761 5767 5772 5777 5783 5788 5793 5798 5803 5808 5812 5815 5818 5821 5824 5827 5829 5831 5833 5835 5836 5837 5838 5839 5840 5840 5839
5572 5578 5587 5599 5605 5612 5617 5629 5644 5651 5658 5667 5676 5684 5693 5702 5711 5719 5727 5734 5741 5747 5753 5759 5765 5770 5775 5781 5786 5791 5796 5801 5805 5809 5812 5815 5818 5821 5823 5825 5827 5829 5831 5832 5833 5834 5835 5835 5835
5563 5569 5576 5585 5593 5599 5604 5615 5629 5637 5645 5655 5664 5673 5682 5691 5702 5710 5717 5725 5732 5738 5745 5751 5757 5762 5768 5773 5778 5784 5790 5794 5799 5803 5806 5809 5812 5815 5817 5820 5822 5824 5826 5827 5828 5829 5829 5830 5830
5551 5556 5563 5573 5580 5584 5591 5601 5612 5623 5631 5641 5651 5661 5671 5681 5692 5699 5707 5715 5722 5729 5736 5743 5749 5755 5760 5766 5772 5778 5783 5788 5792 5796 5799 5802 5805 5808 5811 5814 5816 5818 5820 5821 5823 5823 5824 5824 5824
5540 5545 5553 5561 5568 5573 5579 5587 5598 5608 5618 5629 5640 5650 5660 5670 5679 5688 5697 5705 5713 5721 5728 5735 5741 5747 5753 5759 5765 5770 5775 5779 5784 5788 5792 5796 5799 5802 5805 5807 5810 5812 5814 5816 5817 5817 5818 5818 5818
5530 5536 5544 5550 5557 5561 5567 5574 5585 5596 5606 5616 5627 5638 5649 5659 5669 5679 5688 5696 5704 5712 5720 5727 5734 5740 5746 5751 5756 5761 5766 5771 5777 5782 5786 5789 5792 5795 5798 5801 5803 5806 5808 5809 5810 5811 5812 5812 5812
5522 5529 5534 5540 5545 5551 5557 5562 5575 5585 5594 5605 5617 5628 5639 5650 5660 5669 5678 5687 5696 5705 5712 5719 5726 5732 5737 5743 5748 5754 5760 5766 5771 5774 5778 5781 5785 5788 5791 5794 5797 5799 5801 5803 5804 5805 5805 5806 5805
5515 5520 5525 5530 5535 5540 5546 5552 5563 5573 5583 5595 5608 5620 5630 5641 5650 5659 5669 5678 5687 5695 5702 5710 5717 5723 5729 5735 5741 5746 5752 5757 5761 5765 5770 5774 5778 5781 5784 5787 5790 5792 5794 5796 5797 5798 5799 5799 5799
5508 5512 5516 5521 5525 5530 5539 5543 5552 5565 5577 5590 5601 5611 5621 5631 5640 5650 5658 5667 5676 5684 5692 5700 5707 5714 5720 5726 5732 5738 5744 5749 5753 5758 5763 5767 5771 5774 5777 5780 5783 5785 5787 5789 5790 5791 5792 5792 5792
5501 5506 5510 5513 5516 5523 5533 5535 5546 5561 5571 5581 5591 5601 5610 5620 5630 5639 5648 5657 5666 5674 5683 5691 5698 5705 5712 5718 5724 5730 5736 5740 5746 5750 5755 5759 5763 5767 5770 5773 5776 5778 5780 5781 5783 5784 5784 5784 5784
5495 5499 5504 5509 5513 5520 5524 5529 5543 5554 5561 5569 5579 5588 5598 5608 5618 5628 5638 5647 5656 5665 5673 5681 5689 5697 5703 5709 5716 5722 5727 5732 5737 5742 5747 5751 5756 5759 5762 5765 5768 5770 5772 5774 5775 5776 5777 5777 5777
5489 5493 5499 5504 5508 5513 5517 5526 5536 5544 5552 5560 5569 5578 5588 5598 5608 5618 5627 5636 5645 5654 5663 5672 5680 5687 5694 5701 5707 5713 5718 5724 5729 5734 5739 5743 5747 5751 5754 5757 5759 5762 5764 5766 5767 5768 5769 5769 5768
5485 5489 5493 5497 5501 5506 5512 5520 5528 5537 5545 5553 5561 5570 5579 5588 5597 5607 5616 5625 5634 5644 5653 5661 5670 5677 5684 5691 5697 5704 5710 5715 5720 5725 5730 5735 5738 5742 5745 5748 5751 5753 5756 5757 5759 5760 5761 5761 5760
5480 5484 5487 5492 5496 5501 5507 5516 5522 5529 5537 5544 5552 5560 5569 5578 5587 5597 5606 5615 5624 5633 5642 5651 5659 5667 5674 5681 5687 5694 5700 5706 5711 5716 5721 5726 5729 5733 5737 5740 5742 5745 5747 5749 5750 5752 5752 5752 5752
5474 5478 5482 5486 5490 5495 5500 5512 5514 5521 5528 5535 5543 5551 5560 5568 5577 5586 5595 5604 5613 5622 5631 5640 5648 5656 5664 5671 5678 5684 5690 5696 5702 5707 5712 5717 5720 5724 5728 5731 5733 5736 5738 5740 5742 5743 5743 5743 5743